Location: Antioch Baptist Church
(32.6696°N, 85.7327°W)
Time: 09:21:32
(UTC+00:00)

Cosmos-2242 - Pass Details

Date: 31 October 2020
Orbit: 592 x 616 km, 82.5° (Epoch: 26 November)

Event Time Altitude Azimuth Distance (km) Brightness Sun altitude
Rises 01:22:30 0° 213° (SSW) 2,814 6.8 -31.9°
Reaches altitude 10° 01:25:01 10° 227° (SW) 1,919 6.0 -32.4°
Enters shadow 01:28:23 24° 280° (W) 1,241 5.2 -33.1°
